{"data":{"norad_id":52445,"intl_designator":"2022-048C","name":"JILIN-1 GAOFEN 3D28","alt_names":[],"object_type":"PAYLOAD","status":"ACTIVE","operator":null,"country":"PRC","launch_date":"2022-05-05","launch_site_code":"TAISC","launch_vehicle":null,"mission":null,"orbit_class":"UNKNOWN","rcs_meters":null,"size_class":null,"mass_kg":null,"dimensions":null,"purposes":[],"wikipedia_slug":null,"has_3d_model":false,"image_url":null,"decayed_at":null,"tle_current":{"epoch":"2026-05-24T18:40:37.184160Z","epoch_age_seconds":101192,"freshness":"FRESH","line1":"1 52445U 22048C   26144.77820815  .00092851  00000+0  69945-3 0  9991","line2":"2 52445  97.5622 256.7678 0003802 158.2992 201.8433 15.72226370225840","mean_motion":15.7222637,"eccentricity":0.0003802,"inclination_deg":97.5622,"raan_deg":256.7678,"arg_perigee_deg":158.2992,"mean_anomaly_deg":201.8433,"bstar":0.00069945,"rev_number":22584,"period_min":91.589864378118,"perigee_km":349.97646699813,"apogee_km":355.0944703433,"semimajor_km":6730.6724686707,"source":"CELESTRAK","updated_at":"2026-05-25T13:37:57.737124Z"}}}